Ogden Hill AFB, UT

12:50 PM MDT on May 29, 2017 (GMT -0600)
Hill Air Force Base

Weather History for KHIF - November, 2013

Change the Weather History Date:

Thursday, November 14, 2013

  Actual Average Record
Temperature  
Mean Temperature 44 °F -  
Max Temperature 53 °F 44 °F 63 °F (2016)
Min Temperature 34 °F 30 °F 23 °F (1997)
Degree Days  
Heating Degree Days 22    
Moisture  
Dew Point 27 °F    
Average Humidity 55    
Maximum Humidity 73    
Minimum Humidity 35    
Precipitation  
Precipitation 0.00 in - - ()
Sea Level Pressure  
Sea Level Pressure 29.99 in    
Wind  
Wind Speed 7 mph (SE)    
Max Wind Speed 14 mph    
Max Gust Speed -    
Visibility 10 miles    
Events      
Averages and records for this station are not official NWS values.
T = Trace of Precipitation, MM = Missing Value Source: NWS Daily Summary

Daily Weather History Graph

Daily Weather History Graph

Search for Another Location

Airport or City:

Trip Planner

Search our weather history database for the weather conditions in past years. The results will help you decide how hot, cold, wet, or windy it might be!

Date:

Astronomy

Nov. 14, 2013 Rise Set
Actual Time 7:14 AM MST 5:09 PM MST
Civil Twilight 6:45 AM MST 5:38 PM MST
Nautical Twilight 6:12 AM MST 6:12 PM MST
Astronomical Twilight 5:39 AM MST 6:44 PM MST
Moon 3:34 PM MST (11/14) 4:12 AM MST (11/14)
Length of Visible Light 10h 53m
Length of Day
9h 54m
Waxing Gibbous, 92% of the Moon is Illuminated
Nov 14
Waxing Gibbous
Nov 17
Full
Nov 25
Last Quarter
Dec 2
New
Dec 9
First Quarter

Hourly Weather History & Observations

Time (MST) Temp. Windchill Dew Point Humidity Pressure Visibility Wind Dir Wind Speed Gust Speed Precip Events Conditions
12:55 AM 39.7 °F - 29.8 °F 68% 30.19 in 10.0 mi Calm Calm - N/A   Clear
1:55 AM 37.8 °F 32.5 °F 29.5 °F 72% 30.17 in 10.0 mi SSW 6.9 mph - N/A   Clear
2:55 AM 37.6 °F 30.0 °F 28.8 °F 70% 30.19 in 10.0 mi ESE 11.5 mph - N/A   Clear
3:55 AM 36.1 °F 28.2 °F 28.4 °F 73% 30.17 in 10.0 mi ESE 11.5 mph - N/A   Clear
4:55 AM 36.3 °F 29.5 °F 27.7 °F 71% 30.18 in 10.0 mi ESE 9.2 mph - N/A   Clear
5:55 AM 35.6 °F 27.5 °F 26.8 °F 70% 30.20 in 10.0 mi ESE 11.5 mph - N/A   Clear
6:55 AM 35.1 °F 26.9 °F 26.6 °F 71% 30.17 in 10.0 mi ESE 11.5 mph - N/A   Clear
6:58 AM 35.1 °F 26.4 °F 26.2 °F 70% 30.19 in 10.0 mi ESE 12.7 mph - N/A   Clear
7:58 AM 34.9 °F 25.7 °F 25.7 °F 69% 30.18 in 10.0 mi ESE 13.8 mph - N/A   Scattered Clouds
8:58 AM 38.5 °F 31.6 °F 27.0 °F 63% 30.17 in 10.0 mi ESE 10.4 mph - N/A   Scattered Clouds
9:55 AM 42.3 °F 36.3 °F 27.7 °F 56% 30.15 in 10.0 mi ESE 10.4 mph - N/A   Scattered Clouds
9:58 AM 42.3 °F 36.3 °F 27.7 °F 56% 30.18 in 10.0 mi ESE 10.4 mph - N/A   Clear
10:58 AM 47.1 °F - 29.8 °F 51% 30.14 in 10.0 mi South 9.2 mph - N/A   Clear
11:58 AM 49.8 °F - 29.3 °F 45% 30.05 in 10.0 mi South 10.4 mph - N/A   Mostly Cloudy
12:58 PM 52.0 °F - 28.0 °F 40% 29.97 in 10.0 mi SSE 11.5 mph - N/A   Mostly Cloudy
1:58 PM 53.2 °F - 26.1 °F 35% 29.92 in 10.0 mi South 12.7 mph - N/A   Mostly Cloudy
2:58 PM 52.5 °F - 26.8 °F 37% 29.88 in 10.0 mi South 8.1 mph - N/A   Mostly Cloudy
3:58 PM 52.3 °F - 27.5 °F 38% 29.83 in 10.0 mi SSW 8.1 mph - N/A   Mostly Cloudy
4:58 PM 51.3 °F - 26.6 °F 38% 29.81 in 10.0 mi Calm Calm - N/A   Mostly Cloudy
5:58 PM 49.1 °F - 26.2 °F 41% 29.81 in 10.0 mi North 2.3 mph - N/A   Mostly Cloudy
6:58 PM 46.8 °F - 29.3 °F 51% 29.82 in 10.0 mi NW 8.1 mph - N/A   Mostly Cloudy
7:58 PM 45.3 °F 41.6 °F 29.5 °F 54% 29.82 in 10.0 mi NNW 6.9 mph - N/A   Mostly Cloudy
8:58 PM 40.8 °F 35.6 °F 27.7 °F 60% 29.78 in 10.0 mi ESE 8.1 mph - N/A   Partly Cloudy
9:43 PM 44.6 °F - 24.8 °F 46% 29.79 in 10.0 mi SE 2.3 mph - N/A   Mostly Cloudy
9:58 PM 45.7 °F 43.4 °F 24.3 °F 43% 29.74 in 10.0 mi SSE 4.6 mph - N/A   Overcast
10:18 PM 44.6 °F 43.1 °F 23.0 °F 43% 29.78 in 10.0 mi SSE 3.5 mph - N/A   Scattered Clouds
10:58 PM 42.8 °F 41.1 °F 25.3 °F 50% 29.73 in 10.0 mi SW 3.5 mph - N/A   Clear
11:58 PM 39.6 °F 34.7 °F 26.6 °F 60% 29.70 in 10.0 mi ESE 6.9 mph - N/A   Mostly Cloudy